WESTFORD NEEDLES, 2949

Orbit data source: Space-Track

WESTFORD NEEDLES, 2949 is space debris in LEO originally from a launch on Thu, 09 May 1963 UTC launched from the Air Force Western Test Range (AFWTR). Debris objects in space refer to the collection of defunct objects orbiting the Earth. Examples of debris include non-operational satellites, rocket bodies, and fragments generated from explosions, collisions, or faulty payload assembly.

Loading next visibility...
Identifier
2949, 1963-014AS
Orbit
LEO
Country
Flag of USUS
Related business
Manufacturer
Unknown
Mission
Spacecraft
Bus & Motor
Unknown
Mass
Unknown
Launch date (UTC)
1963-05-09 (63 years ago)
Launch vehicle
Unknown
Launch site
Air Force Western Test Range (AFWTR)
Object type
Payload
Rocket body
Debris
Shape & HBR
Unknown shape, 0.2 m
Radar Cross Section
Medium (>0.1 m² and <1 m²)

Expand to show TLE details & history
Last TLE update: 13 hours ago

TLE from 13 hours ago
0 WESTFORD NEEDLES
1 02949U 63014AS  26112.18056138  .00008938  00000-0  20806+0 0  9995
2 02949  85.4811   9.4313 2266304 150.5430   2.9067  8.85356598390849
Epoch: 2026-04-22T04:20Z
TLE epoch observation values (Epoch: 2026-04-22T04:20:00.503Z)
Latitude
24.67699°
Longitude
-87.88666°
Altitude
1,262.007 km
Speed
8.002 km/s
True Right ascension
12h 29m 26s
True Declination
24° 33' 19"
Sunlit
Object was in full shadow at epoch
Visualization orbit readout
Latitude
Unknown
Longitude
Unknown
Altitude
Unknown
Speed
Unknown
Apparent Right ascension
Unknown
Apparent Declination
Unknown
Sunlit
N/A
Visualization observer readout
Local Sidereal Time
00:31:51
Azimuth
Unknown
Elevation
Unknown
Doppler factor
Unknown
Orbital elements
Apogee altitude
5,725.97 km
Perigee altitude
1,253.296 km
Semi-major axis
9,867.77 km
Eccentricity
0.22663
Inclination
85.4811°
RAAN
9.4313°
Arg. of periapsis
150.543°
True anomaly
4.73145°
Mean anomaly
2.9067°
Eccentric anomaly
3.7577°
Mean motion
2.21419 °/min
Orbital period
162.59 mins
BSTAR
0.20806
Loading maneuver chart data...
Computing Atmospheric mass density...

Documentation

Showing up to 5 results
|